sat.trackr.live / text

‹ back to catalog

STARLINK-2483

NORAD 48140 · 2021-027BA

PAYLOAD ACTIVE UNKNOWN

§ Identity

Operator
Country
US
Launch date
2021-04-07
Launch site
AFETR
Launch vehicle
Mass (kg)
RCS (m²)

Purposes: comms

External: N2YO · Heavens-Above · Gunter

§ Orbital elements

Epoch: 2026-09-19T18:02:32.108928Z

Period
94.01 min
Inclination
53.1608°
Eccentricity
0.0001275
Mean motion
15.31714705 rev/d
Perigee alt
469.8 km
Apogee alt
471.6 km
Semi-major
6,848.8 km
B*
2.0768e-4
RAAN
342.5471°
Arg perigee
72.3130°
Mean anomaly
287.8010°
Rev number
30,224

§ Raw data

STARLINK-24831 48140U 21027BA  26262.75176052  .00006087  00000+0  20768-3 0  99962 48140  53.1608 342.5471 0001275  72.3130 287.8010 15.31714705302240

JSON: /api/v1/satellites/48140 · /tle

For live sub-satellite position, see the globe view (requires WebGL).

§ Visibility from observer

Set your observer location to see the next 7 days of passes ≥ 10°. The values pass through the URL so the page stays shareable.

No JS? Fill the form by hand. The geolocation button needs JavaScript.